This is the latest recevied weather packets stored in our database for station/object N7NIP. If no packets are shown the sender has not sent any weather packets the latest 10 day(s).
| Time | Temp. | Humidity | Pressure | Rain* | Wind** | Luminosity | Snow |
|---|---|---|---|---|---|---|---|
| 1777500405 | 18.89° C | 56% | 1037.3 hPa | 0 mm | - | 794 W/m² | - |
| 1777500101 | 18.89° C | 58% | 1037.1 hPa | 0 mm | - | 802 W/m² | - |
| 1777499798 | 18.89° C | 55% | 1037.1 hPa | 0 mm | - | 812 W/m² | - |
| 1777499494 | 18.33° C | 59% | 1036.9 hPa | 0 mm | - | 823 W/m² | - |
| 1777499193 | 18.33° C | 58% | 1037.2 hPa | 0 mm | - | 833 W/m² | - |
| 1777498889 | 18.33° C | 59% | 1037.1 hPa | 0 mm | - | 840 W/m² | - |
| 1777498586 | 17.78° C | 59% | 1037.5 hPa | 0 mm | - | 850 W/m² | - |
| 1777498281 | 18.33° C | 59% | 1037.2 hPa | 0 mm | - | 857 W/m² | - |
| 1777497981 | 17.78° C | 57% | 1037.2 hPa | 0 mm | - | 866 W/m² | - |
| 1777497676 | 18.33° C | 56% | 1037.3 hPa | 0 mm | - | 873 W/m² | - |
| 1777497373 | 17.78° C | 60% | 1037.6 hPa | 0 mm | - | 880 W/m² | - |
| 1777497068 | 17.78° C | 58% | 1037.5 hPa | 0 mm | - | 884 W/m² | - |
| 1777496765 | 18.33° C | 60% | 1037.5 hPa | 0 mm | - | 889 W/m² | - |
| 1777496462 | 17.78° C | 63% | 1037.6 hPa | 0 mm | - | 895 W/m² | - |
| 1777496159 | 17.22° C | 58% | 1037.5 hPa | 0 mm | - | 898 W/m² | - |
| 1777495855 | 17.22° C | 58% | 1037.5 hPa | 0 mm | - | 903 W/m² | - |
| 1777495550 | 17.22° C | 59% | 1037.5 hPa | 0 mm | - | 906 W/m² | - |
| 1777495246 | 17.22° C | 62% | 1037.8 hPa | 0 mm | - | 908 W/m² | - |
| 1777494944 | 17.22° C | 63% | 1037.7 hPa | 0 mm | - | 912 W/m² | - |
| 1777494642 | 17.22° C | 65% | 1037.7 hPa | 0 mm | - | 911 W/m² | - |
| 1777494339 | 17.22° C | 62% | 1037.3 hPa | 0 mm | - | 911 W/m² | - |
| 1777494035 | 16.67° C | 61% | 1037.7 hPa | 0 mm | - | 908 W/m² | - |
| 1777493733 | 17.22° C | 63% | 1037.9 hPa | 0 mm | - | 911 W/m² | - |
| 1777493431 | 16.67° C | 65% | 1037.9 hPa | 0 mm | - | 906 W/m² | - |
| 1777493126 | 16.67° C | 63% | 1038 hPa | 0 mm | - | 908 W/m² | - |
* Rain latest hour (hover to see other rain measurements)
** Current wind speed in m/s (hover to see current wind gust speed)